TUBIN
1 48900U 21059X   25255.63260642  .00056885  00000-0  47063-3 0  9991
2 48900  97.6779  73.2338 0002882 233.4366 126.6630 15.70104268234907
LEDSAT
1 49069U 21073D   25255.51516948  .00182178  00000-0  95477-3 0  9991
2 49069  97.3761 342.0485 0002733 107.9336 252.2230 15.80284894226312
CUTE
1 49263U 21088D   25255.45076570  .00028829  00000-0  48780-3 0  9995
2 49263  97.4419 334.7101 0005306 235.7505 124.3245 15.51521570219117
TeikyoSat 4
1 49396U 21102B   25255.51664171  .00001976  00000-0  13207-3 0  9996
2 49396  97.4034 290.5043 0012969 160.9596 199.2120 15.08020018210851
Z-Sat
1 49399U 21102E   25255.54581532  .00003095  00000-0  16770-3 0  9993
2 49399  97.3722 294.2343 0019214 131.4767 228.8119 15.15167836211355
KOSEN 1
1 49402U 21102H   25255.54718039  .00005609  00000-0  25123-3 0  9997
2 49402  97.3619 298.3920 0017209 105.8478 254.4657 15.21517827211726
HO-113
1 50466U 21131B   25255.62003433  .00000464  00000-0  15851-3 0  9996
2 50466  98.5082 344.5038 0003854 195.7602 164.3467 14.40920017195130
SNUGLITE 2
1 52899U 22065F   25255.19493347  .00000999  00000-0  20217-3 0  9999
2 52899  98.1823  36.3277 0007789 168.3253 191.8131 14.63434046170325
UmKA 1 (RS40S)
1 57172U 23091G   25255.59926031  .00004223  00000-0  22041-3 0  9994
2 57172  97.5484 310.5009 0014067  12.4494 347.7084 15.16396497121874
CubeBel-2 (EU11S)
1 57175U 23091K   25255.55990174  .00007610  00000-0  34535-3 0  9996
2 57175  97.5481 312.2268 0011696  19.2565 340.9110 15.21032707121983
ENSO
1 58470U 23185J   25255.61705255  .00105180  00000-0  88482-3 0  9991
2 58470  97.3617 334.5263 0003918 109.6095 250.5590 15.69531100 99865
SONATE-2
1 59112U 24043Q   25255.60130233  .00017031  00000-0  44248-3 0  9995
2 59112  97.5253  28.9499 0010924 132.9076 227.3088 15.38963228 84937
MO-122
1 60209U 24125G   25255.52294743  .00017991  00000-0  45736-3 0  9991
2 60209  97.2679 106.2364 0018134 150.9478 209.2781 15.39502591 66542
GRBBeta
1 60237U 24128C   25255.60690950  .00003434  00000-0  25786-3 0  9994
2 60237  61.9900 108.0435 0056720  78.0888 282.6556 15.03442484 64486
Curium One
1 60242U 24128H   25254.93975934  .00006172  00000-0  41505-3 0  9992
2 60242  61.9796 107.1541 0056518  74.7821 285.9512 15.06512436 64440
ROBUSTA-3A
1 60243U 24128J   25255.57098611  .00005825  00000-0  39843-3 0  9998
2 60243  61.9867 106.1004 0056006  72.3517 288.3680 15.05987430 64522
CatSat
1 60246U 24125J   25254.58714320  .00019847  00000-0  60484-3 0  9994
2 60246  97.2494 103.4081 0041493 117.9511 242.5941 15.33130826 64377
HYPERVIEW-1G (RS66S)
1 61772U 24199AP  25255.58222111  .00020965  00000-0  53470-3 0  9993
2 61772  97.3368 124.4117 0011556 201.6488 158.4271 15.39476349 91557
AO-123
1 61781U 24199AY  25255.54472648  .00005901  00000-0  20771-3 0  9992
2 61781  97.3393 122.0909 0014221 215.2539 144.7762 15.29608956 91393
ZIMSAT 2
1 61783U 24199BA  25255.61017519  .00045872  00000-0  86217-3 0  9992
2 61783  97.3326 125.9806 0010780 191.3317 168.7693 15.48386221 94811
HADES-R (SO-124)
1 62690U 25009CK  25255.49733590  .00043085  00000-0  12047-2 0  9994
2 62690  97.4015 336.3355 0003053 137.2319 222.9163 15.36544841 36685
HYDRA-T
1 62692U 25009CM  25255.46169818  .00038819  00000-0  10707-2 0  9999
2 62692  97.4016 336.3831 0002684 135.3258 224.8203 15.36997506 36683
JINJUSat 1B
1 63210U 25052A   25255.42691300  .00008371  00000-0  36167-3 0  9995
2 63210  97.4267 148.4042 0004344  23.9359 336.2079 15.22729234 27677
NUSHSAT 1
1 63211U 25052B   25254.67849663  .00011079  00000-0  47107-3 0  9994
2 63211  97.4256 147.6992 0004648  30.4361 329.7145 15.23190150 27563
TEVEL2-4
1 63213U 25052D   25254.64746916  .00012899  00000-0  55444-3 0  9994
2 63213  97.4174 147.3939 0004521  47.4357 312.7260 15.22783365 27559
TEVEL2-5
1 63214U 25052E   25254.64972027  .00012629  00000-0  54348-3 0  9992
2 63214  97.4174 147.3916 0004508  47.8662 312.2957 15.22747269 27554
TEVEL2-6
1 63215U 25052F   25255.44290116  .00009700  00000-0  41863-3 0  9998
2 63215  97.4174 148.1672 0004574  46.3928 313.7687 15.22721021 27672
TEVEL2-1
1 63217U 25052H   25254.94262693  .00009782  00000-0  42539-3 0  9994
2 63217  97.4147 147.5554 0005114  55.0733 305.0983 15.22454564 27597
TEVEL2-3
1 63218U 25052J   25254.67980403  .00010044  00000-0  43665-3 0  9995
2 63218  97.4149 147.2979 0005197  56.2170 303.9561 15.22458660 27553
TEVEL2-2
1 63219U 25052K   25254.94333064  .00009854  00000-0  42854-3 0  9997
2 63219  97.4148 147.5558 0005156  55.4882 304.6841 15.22451421 27596
TEVEL2-9
1 63237U 25052AD  25255.15160769  .00008759  00000-0  39568-3 0  9992
2 63237  97.4210 147.5827 0009587  55.4212 304.7927 15.21156013 27600
TEVEL2-7
1 63238U 25052AE  25254.63213450  .00011383  00000-0  51455-3 0  9997
2 63238  97.4214 147.0587 0009694  56.9107 303.3058 15.21059948 27521
TEVEL2-8
1 63239U 25052AF  25255.42551361  .00008350  00000-0  37863-3 0  9999
2 63239  97.4214 147.8301 0009684  54.8960 305.3182 15.21042826 27647
HYDRA-W
1 63490U 25052BL  25254.93794901  .00028764  00000-0  10361-2 0  9996
2 63490  97.4157 148.3502 0012648  51.9493 308.2886 15.28449667 27648
HADES-ICM (SO-125)
1 63492U 25052BN  25255.57759167  .00027461  00000-0  10121-2 0  9991
2 63492  97.4163 148.8845 0013016  52.9092 307.3335 15.27702545 27733
